Theta_e
306 305 305 304 304 303 303 302 302 302 302 302 301 301 301 301 302 303 304 305 306 306 307 307 307 307 306 306 306 309 309 309 308 309 308 308 308 308 307 307 306 305 306
303 303 302 301 301 301 300 300 300 300 299 299 299 299 299 299 299 299 300 300 301 302 304 305 305 305 305 305 304 304 305 308 307 306 305 306 306 306 306 305 305 306 305
301 301 300 300 300 299 299 299 298 298 297 297 297 297 297 297 297 298 298 299 299 300 301 303 304 304 304 304 302 302 302 301 303 304 304 304 304 304 304 304 304 304 304
300 300 299 299 298 298 297 297 297 296 295 295 295 294 295 295 295 296 296 296 297 297 298 299 300 301 302 301 301 300 299 298 299 300 301 301 302 302 302 302 303 303 303
299 299 298 297 297 296 296 296 295 294 294 293 293 293 293 293 293 293 294 295 295 296 296 296 297 298 299 299 299 299 297 297 298 298 298 299 300 300 300 300 300 300 300
298 297 296 296 296 295 295 294 293 293 293 293 293 292 292 292 292 292 292 292 293 295 295 296 296 297 297 298 298 297 296 295 296 296 297 297 298 297 298 298 298 297 296
296 295 295 295 294 293 292 292 292 292 292 292 292 292 292 291 292 292 292 292 292 292 293 295 296 296 296 296 297 297 296 295 294 294 295 296 295 296 295 294 295 295 295
295 294 293 293 292 292 292 292 292 292 292 292 292 291 291 291 291 292 292 293 293 293 293 293 295 295 295 294 294 294 294 293 293 293 293 294 294 294 293 293 293 292 293
293 292 291 291 291 291 291 290 290 290 291 291 291 291 291 291 290 291 292 292 292 293 293 294 294 294 293 292 292 292 293 293 292 291 291 291 291 291 291 291 291 291 290
291 291 291 290 290 290 290 290 289 289 290 290 291 291 291 290 290 290 291 291 292 293 293 293 292 290 290 291 290 290 289 290 289 289 289 289 289 289 290 290 290 289 289
290 290 289 289 289 289 289 289 289 289 290 290 290 291 291 291 290 290 290 291 291 292 292 291 289 288 289 288 288 288 287 287 287 288 288 288 288 287 288 288 288 287 287
289 289 289 289 289 289 289 288 288 289 289 290 290 290 291 290 290 290 290 288 288 288 289 288 287 288 287 287 287 287 287 287 287 287 287 287 286 286 286 286 286 286 286
289 289 288 289 289 289 289 289 288 289 289 289 288 289 289 288 288 288 287 287 287 286 286 287 287 287 287 287 287 286 286 286 286 286 286 286 286 286 286 285 285 285 285
288 288 288 288 289 290 289 289 288 288 288 287 287 287 287 286 286 285 285 285 286 285 286 287 286 287 287 287 287 287 287 286 286 286 286 286 286 286 286 286 285 285 286
288 288 288 288 288 289 289 288 288 287 286 286 287 286 284 284 284 285 285 286 286 286 286 286 286 286 286 286 287 287 286 286 286 286 286 286 286 286 286 286 286 285 285
288 288 288 288 288 288 288 289 287 286 285 285 285 284 283 284 285 285 286 286 286 286 286 286 286 286 286 286 286 287 287 287 287 287 287 287 287 286 286 286 286 285 285
288 287 287 288 287 287 286 285 286 286 285 285 284 284 284 285 285 285 286 286 286 286 286 286 286 286 286 286 286 286 286 286 287 287 287 286 286 286 286 285 285 285 284
287 287 287 287 286 285 284 284 284 284 284 284 285 284 284 284 285 285 285 286 286 286 286 286 286 285 285 285 285 286 286 286 286 286 286 286 285 285 285 284 284 283 283
286 286 286 285 285 284 283 283 283 283 282 282 282 283 283 283 284 284 285 286 286 286 285 285 285 285 285 284 284 285 284 284 284 284 284 284 284 283 283 283 282 282 282
285 285 285 284 284 283 282 282 282 282 281 281 282 282 283 283 283 284 285 285 285 284 284 284 284 284 283 283 283 282 282 282 281 281 281 281 281 280 280 280 280 280 280
284 283 283 282 282 282 281 281 281 281 281 281 281 281 282 282 283 283 283 283 283 283 283 283 282 282 282 281 280 279 278 278 278 278 277 277 277 277 277 277 277 277 277
282 282 281 281 281 281 281 281 280 280 280 280 280 281 281 281 281 281 282 282 282 281 281 281 281 279 278 277 277 277 276 275 275 275 274 274 274 274 274 274 274 274 274
280 280 280 279 279 280 280 280 279 279 279 279 279 279 280 279 280 280 280 280 280 280 278 277 277 276 276 275 275 274 274 274 274 274 274 273 273 273 273 273 273 273 273
279 279 278 277 278 278 278 278 278 278 278 278 278 278 278 278 278 278 278 277 277 276 276 275 275 274 274 274 274 273 273 273 273 273 273 273 273 272 272 272 272 272 272
277 277 277 276 276 277 277 277 276 276 277 277 277 277 277 277 277 276 275 274 275 275 274 274 273 273 273 273 273 272 272 272 272 272 272 272 272 271 271 271 271 271 271
276 276 276 275 275 275 275 275 275 275 276 276 276 276 276 276 276 276 275 274 273 273 273 273 272 272 272 272 272 272 272 271 271 271 271 271 271 271 270 270 270 270 269
Wind_Speed
8 7 7 7 8 9 11 13 14 16 17 19 20 22 23 24 25 27 28 30 31 32 33 35 37 37 39 39 40 41 42 43 47 65 51 51 50 51 53 50 49 45 46
6 6 8 9 10 10 12 14 16 18 20 22 24 26 27 27 28 30 32 33 35 36 37 37 39 38 40 40 39 39 40 40 43 52 59 53 54 55 56 54 52 49 46
5 6 7 9 10 13 15 18 21 23 26 28 30 31 32 32 33 33 34 35 36 36 37 39 40 41 42 40 39 40 39 40 41 42 52 49 51 50 54 53 52 50 48
5 7 8 11 13 15 18 21 24 27 29 30 31 32 32 32 33 34 35 36 37 37 38 38 40 42 43 43 42 42 41 40 39 42 46 50 50 50 52 52 53 51 48
4 7 10 13 17 20 23 26 29 31 31 32 33 33 34 35 35 37 39 41 42 42 42 41 42 42 42 42 42 42 39 37 38 41 43 41 46 42 46 49 51 51 51
8 11 16 20 23 26 29 30 31 32 33 34 35 37 39 38 38 39 41 43 44 44 45 44 43 43 43 44 43 40 33 33 37 40 44 46 49 44 42 45 46 46 42
12 16 20 24 26 28 29 30 31 34 36 38 39 41 43 43 42 42 43 45 46 46 46 45 45 43 43 43 43 42 40 35 31 35 41 45 47 45 43 43 43 42 45
16 21 24 26 27 28 30 32 34 36 38 40 42 43 45 44 43 44 45 46 47 47 46 45 45 45 41 38 38 41 39 38 37 34 34 38 41 43 40 39 37 36 36
20 22 23 25 27 29 31 33 35 38 39 40 41 43 44 44 42 42 43 45 47 47 46 45 43 42 37 30 33 38 39 38 36 34 32 32 34 35 34 32 32 27 28
20 21 23 26 29 32 34 36 37 39 40 41 42 40 40 41 39 38 40 41 44 44 43 42 39 35 34 31 30 31 35 35 33 32 28 29 26 27 25 21 18 20 21
20 22 25 28 31 34 37 38 39 39 41 42 42 42 42 40 39 35 33 34 36 38 39 39 37 31 28 26 26 28 30 30 29 25 24 20 19 18 14 10 9 11 13
20 23 26 29 32 35 37 38 38 38 40 42 42 43 42 41 38 35 29 26 28 30 32 32 29 27 27 25 23 20 20 18 17 15 15 13 13 13 12 7 4 3 5
22 25 28 31 32 33 35 36 38 38 39 41 40 42 43 40 36 30 27 29 27 24 26 24 24 21 18 16 14 13 14 13 12 10 10 11 10 8 8 7 6 5 3
24 26 28 32 33 33 34 35 37 37 38 37 38 38 39 37 33 28 30 30 27 23 22 19 15 12 12 13 13 13 13 13 12 11 10 9 8 9 9 9 8 8 6
25 27 29 32 34 35 35 36 37 35 33 34 34 33 32 32 27 29 30 24 22 19 19 12 10 9 9 11 12 15 13 12 13 12 11 11 12 12 12 11 10 9 10
26 27 29 32 33 34 36 38 35 34 29 25 25 24 25 24 25 27 22 16 14 15 11 8 8 7 8 9 9 13 17 15 14 12 11 10 10 11 12 12 11 11 10
25 26 29 30 32 33 34 35 38 34 26 20 20 19 18 22 22 19 17 13 14 13 9 7 6 6 6 7 9 10 11 11 10 9 7 6 7 8 10 11 10 9 7
23 25 28 29 30 30 31 31 30 30 31 24 15 18 18 20 20 18 14 13 13 12 8 5 4 5 5 6 7 8 8 8 8 7 6 6 7 8 9 10 9 8 8
23 23 25 27 27 27 27 26 25 23 22 21 22 19 19 19 17 15 12 11 12 10 8 5 4 4 4 5 6 7 8 8 8 8 8 8 8 9 9 9 8 7 7
21 22 23 24 25 24 22 21 20 17 17 18 19 20 17 11 8 9 7 7 7 6 5 4 3 4 4 5 6 6 7 7 8 8 8 9 9 8 8 8 8 7 7
20 20 20 21 21 21 20 18 16 15 16 15 15 15 13 9 7 7 6 5 5 4 4 4 3 4 5 6 7 8 9 10 11 11 11 10 10 9 9 9 8 8 8
18 18 19 19 19 18 18 16 15 14 14 14 14 12 11 9 7 6 5 5 5 4 4 5 6 7 8 9 11 12 13 13 13 12 11 10 10 9 9 9 9 9 9
17 18 18 18 17 17 16 15 14 14 13 13 13 12 11 9 8 7 6 6 5 5 6 8 10 11 13 13 13 12 11 10 10 10 10 9 9 9 9 9 9 9 9
17 17 17 17 17 16 15 15 14 14 14 13 13 12 11 10 9 8 7 7 9 10 12 13 13 13 11 10 9 9 10 9 10 10 10 10 10 10 10 10 10 10 10
17 17 17 17 17 16 16 15 15 14 14 14 14 13 13 12 11 10 11 13 14 14 14 12 11 10 9 9 9 10 10 11 11 12 13 13 13 13 13 13 12 12 12
18 17 17 18 17 17 17 16 16 16 16 15 16 16 16 16 15 15 15 15 14 13 12 11 11 11 11 12 13 14 15 16 17 17 18 18 18 17 17 17 16 15 14
Wind_Direction
83 64 47 28 13 0 352 347 342 338 334 332 330 328 325 323 320 317 315 313 311 309 308 305 303 303 298 295 288 282 280 277 273 284 284 288 288 286 293 289 291 291 289
67 42 25 14 6 357 351 345 339 336 333 329 325 323 322 320 318 316 313 312 310 309 309 307 305 304 300 299 295 289 283 275 276 278 286 285 284 289 289 293 293 292 290
54 31 16 2 353 346 342 336 332 328 325 323 321 319 318 318 317 315 313 312 310 308 308 307 306 304 302 302 299 294 291 288 279 277 282 286 286 285 288 288 291 291 291
28 6 354 343 338 332 328 325 323 321 318 316 314 314 314 313 313 312 310 308 307 307 306 306 305 304 304 304 301 297 295 289 289 285 283 285 286 287 287 287 290 291 292
348 337 331 329 328 326 325 323 321 320 320 319 319 318 318 317 318 315 312 310 309 307 306 305 304 303 303 303 303 301 299 294 286 284 282 284 285 284 286 292 292 295 295
331 330 328 326 326 324 323 321 321 320 319 318 317 317 316 315 315 314 313 311 310 309 309 308 305 303 302 300 300 299 295 290 288 287 286 286 286 285 286 288 289 289 289
326 326 324 323 322 321 320 319 320 318 317 317 316 315 314 314 315 314 313 310 310 311 311 309 306 305 303 301 299 298 296 294 289 289 288 287 290 290 289 286 286 286 288
319 322 323 321 321 320 320 320 320 318 317 316 315 313 311 311 312 312 311 311 310 311 310 309 306 305 306 305 302 300 302 303 302 297 288 286 285 288 289 288 287 287 282
318 319 320 319 318 318 317 317 316 313 313 312 313 313 311 310 309 308 308 309 309 310 310 308 307 306 308 305 304 304 302 301 302 302 300 297 295 292 289 287 280 279 268
316 320 320 318 317 316 314 312 311 310 310 311 311 311 311 310 308 308 307 309 310 310 309 308 308 312 313 314 306 303 303 307 310 311 310 309 305 303 299 285 278 280 255
318 319 318 316 314 311 308 308 309 310 309 309 310 312 313 313 314 313 313 313 312 310 310 311 314 318 316 314 310 303 302 306 306 309 312 316 320 321 320 307 283 265 266
319 321 320 317 314 312 310 310 309 310 312 313 312 312 312 312 314 316 320 319 318 312 311 313 316 321 319 318 317 317 319 319 323 326 331 334 333 336 343 334 320 267 277
320 321 320 320 319 317 314 313 312 312 313 313 313 312 312 313 315 317 320 322 324 318 313 315 318 322 328 336 340 341 342 344 345 354 344 348 357 10 19 30 31 28 356
317 316 318 319 319 317 316 315 315 316 317 315 313 311 312 313 320 325 315 319 322 318 321 327 333 341 351 357 357 360 1 8 10 13 20 22 34 42 48 48 50 52 51
313 313 313 315 317 317 317 317 318 318 319 315 312 311 313 312 312 310 313 314 311 313 322 334 347 349 358 8 17 23 23 35 36 36 45 58 63 57 53 44 39 28 30
309 310 311 315 316 317 318 318 318 319 322 316 309 307 307 303 296 304 314 309 303 309 320 334 338 351 6 17 33 35 43 50 46 56 59 59 50 41 31 22 15 12 16
309 312 312 314 315 318 319 319 320 321 323 322 310 305 301 298 299 308 316 300 297 311 308 301 319 347 12 8 9 18 25 31 31 37 33 24 15 4 358 356 355 352 356
309 311 311 314 317 319 320 320 321 320 323 330 322 317 310 303 303 303 307 288 282 297 301 304 323 347 355 359 360 5 7 4 1 3 353 345 337 334 336 338 342 341 340
306 310 311 314 315 317 318 319 320 319 323 322 322 320 314 305 301 304 303 271 279 282 284 285 307 327 338 346 350 353 353 355 356 351 346 343 340 337 338 337 339 334 325
306 309 310 312 312 312 314 316 315 315 310 316 320 323 328 322 306 297 292 270 264 263 267 277 295 314 331 341 347 349 350 347 343 341 338 336 334 333 331 328 325 321 319
303 304 304 303 305 308 310 311 309 307 307 311 314 319 325 329 311 291 280 268 260 257 265 277 293 316 329 330 330 330 329 328 327 325 324 323 322 321 321 319 317 315 315
298 299 298 299 299 299 300 299 298 297 298 298 300 302 304 300 296 287 275 270 270 272 280 299 312 308 306 310 313 314 315 316 318 321 325 328 328 325 323 322 322 321 320
295 297 298 296 296 296 293 291 288 286 285 286 287 287 285 283 279 277 275 272 275 289 297 293 295 300 303 306 309 313 318 323 328 330 330 329 329 329 329 327 325 320 315
290 292 293 293 292 291 289 286 283 281 278 277 276 276 273 270 269 269 276 287 289 288 290 292 295 298 303 309 314 318 321 324 328 329 329 327 325 324 326 325 323 317 314
282 285 287 286 285 285 285 282 279 277 275 275 272 269 267 264 266 275 282 285 288 290 289 290 293 297 300 304 308 310 311 312 315 316 315 315 315 317 316 313 311 309 307
275 278 281 280 280 280 278 277 276 275 275 273 273 273 273 275 277 280 284 285 283 283 285 289 292 295 298 302 304 305 305 305 306 305 304 303 303 303 302 300 299 299 299